Tracking 29892 objects as of 21-Nov-2024
HD Live streaming from Space Station
objects crossing your sky now

STARLINK-30138

Track STARLINK-30138 now!
10-day predictions
STARLINK-30138 is classified as:


NORAD ID: 57605
Int'l Code: 2023-119D
Perigee: 565.3 km
Apogee: 567.1 km
Inclination: 43.0 °
Period: 95.8 minutes
Semi major axis: 6937 km
RCS: Unknown
Launch date: August 11, 2023
Source: United States (US)
Launch site: AIR FORCE EASTERN TEST RANGE (AFETR)
Your satellite tracking list
Your tracking list is empty




NASA's NSSDC Master Catalog

Two Line Element Set (TLE):
1 57605U 23119D   24325.49973788  .00000887  00000-0  80714-4 0  9997
2 57605  43.0023 138.3792 0001323 251.3441 108.7257 15.02540378 71754
Source of the keplerian elements: AFSPC